SCP
2 2 2 3 3 3 4 4 4 4 4 3 3 3 2 2 2 3 3 3 2 2 2 1 1 1 2 2 1 1 1 1 1 1 1 1 1 1 1 1 1 0 0
2 2 3 3 3 3 4 4 4 4 4 4 3 3 3 2 2 2 2 2 2 2 2 1 1 1 2 2 2 1 1 1 1 1 1 1 1 1 1 1 1 1 0
2 3 3 3 3 3 3 3 4 4 5 4 4 3 3 3 2 2 2 2 2 2 2 2 2 2 2 2 1 2 2 2 1 2 1 1 1 1 1 1 1 1 1
2 2 3 3 3 3 3 3 4 4 5 5 4 4 3 3 3 2 2 2 2 2 2 2 2 2 2 2 2 2 2 2 2 2 2 2 1 1 1 1 1 1 1
1 1 2 2 2 3 3 3 3 4 4 4 4 4 4 4 3 3 3 3 3 3 3 2 2 2 2 2 2 2 2 2 2 2 2 2 2 2 2 1 1 1 1
1 1 1 1 2 2 2 3 3 4 4 4 4 4 4 4 3 3 3 3 4 3 3 3 3 2 2 2 2 2 2 3 3 3 3 3 3 2 2 2 1 1 1
1 1 1 1 1 1 2 2 3 3 3 4 4 4 4 4 3 3 4 4 4 3 3 3 3 3 2 2 2 2 2 3 4 4 3 3 3 3 2 2 2 1 1
1 1 1 1 1 1 2 2 2 3 3 3 4 4 4 3 3 3 3 3 3 3 3 3 3 3 3 2 2 2 2 2 3 3 3 3 3 3 2 2 2 1 1
1 1 1 1 1 1 1 1 2 2 2 3 3 4 4 3 3 3 3 3 3 3 3 3 3 3 3 3 2 2 2 2 2 3 3 3 3 3 2 2 2 1 1
1 1 1 1 1 1 1 1 1 2 2 2 3 3 3 3 3 3 3 3 3 3 3 3 2 3 3 3 3 2 2 2 2 2 3 3 3 3 2 2 2 2 2
1 1 1 1 1 1 1 1 1 1 1 2 2 2 3 3 3 2 2 2 3 3 3 3 3 3 3 3 3 2 2 2 2 2 3 3 3 3 2 2 2 2 2
1 1 1 1 1 1 1 1 1 1 1 1 2 2 2 2 2 2 2 2 3 3 4 4 3 3 3 3 3 2 2 2 1 2 2 3 3 2 2 2 2 2 2
1 1 1 1 1 1 1 1 1 1 1 1 1 2 2 2 2 3 2 2 3 4 4 4 3 3 3 3 3 2 2 1 1 1 2 2 2 2 2 2 2 2 2
2 1 1 1 1 1 1 1 1 1 1 1 1 1 2 2 2 2 3 2 3 3 3 3 3 3 3 3 2 2 2 1 0 0 1 1 1 1 1 1 1 1 2
2 2 2 1 1 1 1 1 1 1 1 1 1 1 1 2 2 2 3 3 3 3 3 3 3 3 3 3 2 2 2 1 0 0 0 0 0 0 0 0 0 1 1
4 3 2 2 1 1 1 1 1 1 1 1 1 1 1 1 2 2 3 3 3 3 3 3 3 3 3 2 2 2 1 0 0 0 0 0 0 0 0 0 0 0 0
4 3 3 2 2 1 1 1 0 0 1 1 1 1 1 1 2 2 3 3 3 3 3 3 2 2 2 2 2 1 1 0 0 0 0 0 0 0 0 0 0 0 0
3 3 3 3 2 1 1 0 0 0 0 1 1 1 1 1 1 2 2 2 2 3 3 2 1 1 1 1 1 1 0 0 0 0 0 0 0 0 0 0 0 0 0
3 3 3 3 2 1 1 0 0 0 0 0 0 0 0 1 1 1 2 2 2 2 2 1 0 0 0 0 0 0 0 0 0 0 0 0 0 0 0 0 0 0 0
2 2 2 2 2 1 1 0 0 0 0 0 0 0 0 1 1 1 1 2 2 1 1 1 0 0 0 0 0 0 0 0 0 0 0 0 0 0 0 0 0 0 0
2 2 2 2 2 1 1 0 0 0 0 0 0 0 0 0 0 1 1 1 1 1 0 0 0 0 0 0 0 0 0 0 0 0 0 0 0 0 0 0 0 0 0
2 2 2 1 1 1 0 0 0 0 0 0 0 0 0 0 0 0 0 0 0 0 0 0 0 0 0 0 0 0 0 0 0 0 0 0 0 0 0 0 0 0 0
2 2 2 1 1 1 0 0 0 0 0 0 0 0 0 0 0 0 0 0 0 0 0 0 0 0 0 0 0 0 0 0 0 0 0 0 0 0 0 0 0 0 0
1 1 1 1 1 1 0 0 0 0 0 0 0 0 0 0 0 0 0 0 0 0 0 0 0 0 0 0 0 0 0 0 0 0 0 0 0 0 0 0 0 0 0
1 1 1 1 1 1 0 0 0 0 0 0 0 0 0 0 0 0 0 0 0 0 0 0 0 0 0 0 0 0 0 0 0 0 0 0 0 0 0 0 0 0 0
0 0 1 1 1 1 0 0 0 0 0 0 0 0 0 0 0 0 0 0 0 0 0 0 0 0 0 0 0 0 0 0 0 0 0 0 0 0 0 0 0 0 0
Wind_Speed
8 8 7 7 9 8 8 8 9 9 10 11 11 12 13 12 11 10 6 9 13 15 16 17 16 16 16 15 16 16 17 18 19 20 21 21 22 21 20 20 19 18 17
8 8 9 9 9 9 8 8 10 9 9 9 11 12 13 13 12 11 11 9 14 16 16 17 17 16 16 15 15 16 16 17 18 19 21 21 22 21 21 21 20 19 18
8 9 9 9 9 9 10 9 11 9 10 10 12 12 12 13 13 13 12 10 9 14 18 18 17 16 16 16 16 16 16 16 16 18 19 21 21 21 21 21 21 20 19
9 8 8 9 9 9 9 9 9 9 10 10 10 10 11 10 14 14 13 12 10 10 13 18 18 17 17 17 16 16 16 16 16 17 18 20 21 21 21 22 21 20 19
8 9 8 8 9 9 9 10 8 9 10 11 11 11 11 11 12 14 15 15 13 12 12 11 16 17 17 18 17 17 16 16 17 18 19 20 21 21 22 22 21 21 20
8 8 9 9 10 10 9 9 10 10 10 10 12 12 11 12 12 14 15 14 13 15 15 14 11 13 19 18 18 18 18 17 17 18 20 21 21 22 22 22 22 21 21
7 7 9 8 9 9 10 12 11 12 11 10 10 11 12 15 15 13 13 13 15 16 15 14 12 11 10 18 20 19 19 19 18 18 19 21 21 22 22 22 22 22 22
7 7 7 9 9 8 10 11 11 11 11 9 9 10 11 11 13 15 13 14 15 13 15 16 15 13 12 10 11 19 19 19 19 18 18 20 21 21 22 23 22 22 22
7 7 8 9 9 10 9 10 11 13 12 11 10 10 10 11 10 10 12 12 12 12 13 13 15 14 14 12 11 13 16 16 17 18 18 18 19 20 21 22 23 23 23
6 7 8 8 9 9 10 11 11 10 12 12 11 11 13 14 12 11 9 10 12 12 13 11 12 13 13 12 10 8 7 10 13 16 16 16 16 18 20 21 23 24 24
6 6 7 8 8 9 10 11 11 12 11 12 12 11 12 12 14 13 12 10 9 10 11 11 10 9 9 9 8 7 5 7 9 11 12 12 13 15 17 19 22 23 24
5 6 7 7 9 9 10 11 11 13 12 13 12 12 12 11 11 12 13 12 11 9 8 6 6 6 6 6 6 3 3 2 3 5 7 8 9 10 12 16 19 22 23
6 6 7 8 9 9 11 11 12 13 13 14 13 12 12 12 12 11 11 12 11 7 5 4 3 4 3 2 2 6 6 4 3 3 2 2 2 3 5 7 11 16 20
7 7 8 9 11 11 11 11 11 12 12 12 14 14 11 12 11 11 11 10 10 8 6 4 1 1 0 1 4 3 7 8 8 8 8 8 8 7 5 3 1 4 8
7 8 9 10 11 11 12 12 11 12 12 12 12 13 12 11 10 10 9 9 9 7 5 3 2 1 2 3 4 4 7 11 11 12 13 13 14 14 13 12 10 9 7
9 10 10 10 11 11 11 11 12 11 12 11 9 11 11 9 8 8 8 8 7 7 3 2 2 3 3 5 6 8 10 13 13 14 15 16 17 17 16 15 15 14 14
10 11 10 10 10 10 10 10 11 11 11 10 9 8 8 8 6 5 4 4 4 4 4 4 3 4 5 6 6 7 7 8 10 15 16 17 17 17 17 17 15 15 15
11 12 11 10 10 9 9 9 10 9 9 8 7 6 6 4 4 3 2 2 2 4 6 8 4 4 5 6 7 7 7 8 9 15 17 18 17 17 17 16 14 14 14
12 12 11 11 9 8 8 7 7 7 6 6 5 4 4 3 2 2 3 4 5 6 7 8 6 3 4 5 7 8 8 7 10 12 15 16 17 16 15 14 13 13 13
12 12 12 11 9 7 6 5 5 4 4 4 4 4 4 4 4 5 6 7 7 8 8 8 7 5 5 6 6 7 7 7 8 9 10 11 14 15 14 13 13 13 12
13 12 12 11 9 7 4 3 3 1 1 3 4 5 6 9 10 7 6 6 7 7 7 7 7 7 6 6 6 7 8 8 8 7 8 8 8 8 10 12 13 13 11
12 12 12 12 10 7 5 0 3 2 2 3 5 6 7 10 13 13 13 11 7 6 7 6 6 7 7 7 6 6 8 8 7 5 6 7 7 8 8 9 10 11 11
12 11 11 11 11 7 8 5 3 3 4 4 5 5 6 8 8 9 12 12 11 9 6 5 8 8 8 7 7 7 6 7 7 5 6 8 7 8 9 9 10 10 10
10 10 10 11 10 9 11 8 5 5 6 6 6 7 8 8 7 8 10 11 10 9 7 8 8 8 8 7 7 9 10 9 8 5 4 7 7 7 8 8 8 8 8
10 10 9 10 11 10 13 11 9 8 7 7 7 7 8 9 7 7 11 12 11 10 13 15 13 12 12 9 3 6 7 7 8 6 3 5 6 6 6 6 7 7 7
10 9 9 9 11 11 14 14 12 8 9 8 7 7 7 9 8 6 10 11 11 10 10 11 10 10 10 8 6 4 4 6 7 7 4 2 4 4 5 5 5 4 4
Wind_Direction
263 268 270 268 271 272 262 254 259 263 258 256 254 252 254 254 250 248 248 209 212 224 235 242 242 241 239 234 232 232 231 228 224 220 218 219 220 220 222 223 224 224 222
273 276 273 270 269 268 267 266 263 261 259 257 256 257 259 258 253 250 251 235 215 220 230 239 243 242 240 237 234 231 230 229 225 220 218 219 220 220 221 222 223 224 223
279 279 279 275 271 273 271 266 263 260 256 252 252 253 253 253 254 250 249 251 240 222 223 229 236 239 241 241 239 234 230 227 224 219 218 218 218 218 219 221 222 222 221
290 287 281 281 285 279 273 266 260 258 256 256 257 254 252 251 251 249 245 241 243 247 232 222 226 231 237 243 244 239 233 228 224 219 217 216 217 217 218 219 220 221 220
300 294 290 289 287 280 274 272 269 262 262 259 257 252 251 249 249 249 246 244 241 240 248 234 218 223 231 240 243 242 237 231 225 220 217 216 216 217 217 218 219 219 219
303 303 293 294 293 286 280 275 275 267 263 263 265 264 257 253 249 246 245 242 240 240 240 244 236 222 221 228 234 238 240 237 229 224 220 217 216 215 216 217 218 218 218
308 299 296 302 290 287 290 290 284 275 266 262 263 262 257 250 247 246 242 244 240 237 239 241 243 246 229 215 221 229 235 238 235 228 223 220 217 215 214 215 216 217 217
305 297 302 297 295 294 286 282 280 279 276 265 259 266 265 254 238 237 236 235 241 240 236 234 235 237 247 247 223 215 226 233 238 235 228 223 219 216 213 214 214 215 216
302 303 300 296 299 289 286 287 285 276 275 272 259 258 266 266 267 245 231 235 239 241 242 240 234 234 235 241 249 216 211 222 233 239 235 228 222 218 215 214 213 214 215
296 299 296 295 292 290 290 283 279 281 275 272 264 253 256 272 279 273 247 231 230 238 245 246 242 234 232 237 235 249 220 224 234 241 242 236 228 222 218 217 216 215 214
287 290 295 294 291 287 288 287 285 277 272 270 272 268 260 256 253 258 263 258 238 229 230 236 242 245 242 241 247 241 205 221 233 238 242 242 238 230 224 221 220 218 215
289 291 292 290 288 289 289 284 281 275 268 268 268 266 262 257 251 246 248 250 250 244 233 236 243 245 245 245 241 103 121 184 220 228 231 234 235 233 229 227 226 223 219
296 304 302 296 292 292 290 288 282 278 273 268 264 262 260 257 259 259 256 254 255 254 240 229 240 246 240 228 153 111 100 100 110 114 117 137 174 213 223 227 229 228 224
295 306 296 291 291 291 290 288 283 277 273 270 267 264 262 259 254 250 250 253 253 245 228 211 173 232 207 133 101 124 105 88 86 84 83 79 76 72 72 93 178 222 217
277 281 286 288 290 291 291 290 283 282 278 272 268 265 259 257 253 250 244 240 241 241 229 180 133 76 94 102 114 108 98 86 83 81 78 76 74 69 64 62 64 66 74
270 272 275 282 287 291 294 294 294 291 287 282 276 272 266 260 255 250 243 236 229 230 213 109 103 103 96 99 94 94 92 87 81 82 80 77 75 72 69 67 65 66 70
265 263 269 277 284 291 297 299 299 302 299 297 294 286 280 273 264 256 243 231 215 196 157 109 90 94 96 100 98 97 97 92 87 84 84 81 77 74 71 69 67 67 69
265 261 263 269 277 288 295 298 303 310 313 311 308 306 306 302 278 253 217 177 149 141 132 124 107 96 94 100 100 95 94 92 91 86 85 84 81 77 74 71 69 68 68
270 263 258 261 270 280 286 292 301 310 316 319 320 327 333 358 32 70 99 105 104 107 111 118 116 103 101 110 104 100 100 104 100 99 91 87 85 81 78 74 70 67 65
275 261 255 254 258 264 272 287 295 309 330 347 360 10 20 50 70 83 88 95 104 109 115 119 122 122 121 125 124 124 117 108 106 103 97 101 101 94 87 78 71 67 64
281 263 253 247 244 244 248 278 274 306 17 55 53 48 57 73 71 76 90 100 110 115 120 124 126 129 129 140 136 131 119 118 111 120 126 127 121 106 96 83 69 62 61
290 275 254 243 237 230 120 99 284 146 111 96 87 82 81 80 81 79 78 75 78 110 123 129 128 126 128 127 126 135 139 133 119 119 120 111 104 92 79 73 62 59 56
298 285 264 246 233 190 148 170 233 183 136 114 106 101 96 92 93 101 95 88 75 69 91 108 115 122 125 129 137 124 103 100 96 118 125 114 108 100 94 81 72 64 57
299 291 275 253 232 187 164 174 192 183 136 126 121 115 112 110 110 115 112 103 91 69 72 94 99 97 101 104 105 107 112 115 110 99 119 117 113 109 107 100 97 81 68
296 292 282 262 234 188 169 174 195 172 148 139 135 130 128 125 127 127 118 111 104 92 71 71 76 80 67 55 64 139 143 130 114 100 90 115 121 121 111 105 118 129 108
286 290 283 267 242 202 173 178 199 183 156 149 139 136 135 137 148 156 134 127 121 116 115 110 106 113 104 85 47 60 114 125 122 108 76 92 121 140 121 92 68 72 96